Powrót do katalogu

IRIDE-MS1-EAG2-15

AktywnyNaukaSSO
NORAD 68462·PAYLOAD·🇺🇾 Uruguay

Wystrzelony Mar 30, 2026 z Vandenberg Space Force Base

Loading…

Następne Przeloty (najbliższe 24 godziny)

TLE

ŚwieżeSource: Space-Track

Epoka: Sep 14, 2026, 07:33 UTC

1 68462U 26067AY  26257.31499099  .00005725  00000-0  27135-3 0  9993
2 68462  97.4646 214.7027 0004923  82.0935 278.0858 15.19684236 25473

Śledź IRIDE-MS1-EAG2-15 w czasie rzeczywistym z AllMySat

Download on the App Store